#timestamp,LO_Frequency,Hit,StdDev 
1593957615.3,286047002.3,N
1593957635.2,286046999.7,N
1593957655.0,286047000.2,N
1593957655.9,286047000.2,N
1593957675.8,286046999.9,N
1593957695.6,286047000.3,N
1593957715.4,286047001.1,N
1593957735.3,286046998.7,N
1593957755.1,286046997.3,N
1593957775.8,286046996.5,N
1593957795.7,286046997.1,N
1593957815.5,286046996.9,N
1593957835.4,286046997.3,N
1593957855.2,286046995.2,N
1593957875.0,286046996.4,N
1593957875.9,286046996.4,N
1593957895.8,286046992.8,N
1593957915.6,286046992.7,N
1593957935.5,286046990.6,Y
1593957955.3,286046992.6,P
1593957975.1,286046992.3,N
1593957995.9,286046994.1,N
1593958015.7,286046994.4,N
1593958035.6,286046991.7,Y
1593958055.4,286047001.1,P
1593958075.2,286046998.8,N
1593958095.1,286046998.8,N
1593958096.0,286046998.8,N
1593958115.8,286046998.9,N
1593958135.7,286046999.5,N
1593958155.5,286046996.9,N
1593958175.3,286046997.7,N
1593958195.2,286046994.9,N
1593958215.0,286046997.9,N
1593958215.9,286046997.9,N
1593958235.7,286046995.8,N
1593958255.6,286046996.4,N
1593958275.4,286046996.0,N
1593958295.3,286046995.8,N
1593958315.1,286046993.9,Y
1593958335.8,286046997.3,P
1593958355.7,286046995.3,P
1593958375.5,286046997.8,N
1593958395.4,286046996.1,Y
1593958415.2,286047000.6,P
1593958435.0,286047000.7,N
1593958435.9,286047000.7,N
1593958455.8,286047000.8,N
1593958475.6,286047000.3,N
1593958495.5,286047002.3,N
1593958515.3,286047001.9,N
1593958535.1,286047001.5,N
1593958555.9,286047002.8,N
1593958575.7,286047002.1,N
1593958595.5,286047001.8,N
1593958615.4,286047003.2,N
1593958635.2,286047003.0,N
1593958655.1,286047005.7,Y
1593958656.0,286047005.7,P
1593958675.8,286047001.8,N
1593958695.6,286047001.5,N
1593958715.5,286047002.0,N
1593958735.3,286047003.6,N
1593958755.2,286047003.3,N
1593958775.9,286047001.6,N
1593958795.7,286046999.8,N
1593958815.6,286047001.0,N
1593958835.4,286047000.8,N
1593958855.3,286046998.9,N
1593958875.1,286046998.7,N
1593958876.0,286046998.7,N
1593958895.8,286046998.4,N
1593958915.7,286047000.6,N
1593958935.5,286046998.1,N
1593958955.3,286047000.4,N
1593958975.2,286047000.9,N
1593958995.0,286047000.9,N
1593958995.9,286047000.9,N
1593959015.8,286047000.8,N
1593959035.6,286047000.8,N
1593959055.4,286046998.2,N
1593959075.3,286046998.8,N
1593959095.1,286047000.8,N
1593959115.9,286047000.0,N
1593959135.7,286047002.2,N
1593959155.5,286047001.5,N
1593959175.4,286047003.9,N
1593959195.2,286047001.5,N
1593959215.0,286047001.8,N
1593959215.9,286047001.8,N
1593959235.8,286047003.9,N
1593959255.6,286047003.9,N
1593959275.5,286047003.8,N
1593959295.3,286047003.7,N
1593959315.1,286047004.2,N
1593959335.9,286047004.4,N
1593959355.7,286047004.1,N
1593959375.6,286047001.7,N
1593959395.4,286047004.1,N
1593959415.2,286047001.8,N
1593959435.1,286047001.5,N
1593959436.0,286047001.5,N
1593959455.8,286047004.0,N
1593959475.6,286047003.5,N
1593959495.5,286047005.8,Y
1593959515.3,286047004.3,P
1593959535.2,286047003.2,N
1593959555.0,286047003.2,P
1593959555.9,286047003.2,Y
1593959575.8,286047000.3,P
1593959595.6,286047000.7,N
1593959615.4,286047000.6,N
1593959635.3,286047000.7,N
1593959655.1,286046998.1,N
1593959675.8,286047001.1,N
1593959695.7,286047001.1,N
1593959715.5,286046998.3,N
1593959735.4,286047000.9,N
1593959755.2,286047001.2,N
1593959775.0,286046998.2,N
1593959775.9,286046998.2,N
1593959795.8,286046998.1,N
1593959815.6,286046999.2,N
1593959835.5,286047001.2,N
1593959855.3,286046999.1,N
1593959875.1,286046998.8,N
1593959895.9,286046999.1,N
1593959915.7,286046999.0,N
1593959935.5,286046998.6,N
1593959955.4,286046998.8,N
1593959975.2,286047001.2,N
1593959995.1,286046998.6,N
1593959996.0,286046998.6,N
1593960015.8,286046998.2,N
1593960035.6,286046998.8,N
1593960055.5,286046998.2,N
1593960075.3,286046998.2,N
1593960095.1,286046998.9,N
1593960115.9,286046999.3,N
1593960135.7,286046998.8,N
1593960155.6,286046996.5,Y
1593960175.4,286046999.2,P
1593960195.2,286046999.1,P
1593960215.1,286047000.4,P
1593960216.0,286047000.4,N
1593960235.8,286047001.2,N
1593960255.7,286047000.6,N
1593960275.5,286046998.4,N
1593960295.3,286046998.7,N
1593960315.2,286046998.7,N
1593960335.0,286046998.2,N
1593960335.9,286046998.2,N
1593960355.8,286047001.0,N
1593960375.6,286046998.8,N
1593960395.4,286046997.1,N
1593960415.3,286046996.6,N
1593960435.1,286046999.5,N
1593960455.8,286046996.8,N
1593960475.7,286046997.6,N
1593960495.5,286046999.5,N
1593960515.4,286047000.3,N
1593960535.2,286047002.0,N
1593960555.0,286047001.8,N
1593960555.9,286047001.8,N
1593960575.8,286047003.4,N
1593960595.6,286047005.9,Y
1593960615.5,286047002.9,P
1593960635.3,286047004.9,N
1593960655.1,286047004.6,N
1593960675.9,286047005.2,N
1593960695.7,286047005.5,N
1593960715.5,286047004.6,N
1593960735.4,286047005.1,N
1593960755.2,286047005.4,N
1593960775.1,286047005.8,Y
1593960776.0,286047005.8,P
1593960795.8,286047000.2,N
1593960815.6,286046999.9,N
1593960835.5,286046999.7,N
1593960855.3,286047002.2,N
1593960875.2,286047002.7,N
1593960895.9,286047002.5,N
1593960915.7,286047004.4,N
1593960935.6,286047002.9,N
1593960955.4,286047003.6,N
1593960975.2,286047001.5,N
1593960995.1,286047001.7,N
1593960996.0,286047001.7,N
1593961015.8,286047001.5,N
1593961035.7,286047002.2,N
1593961055.5,286047001.7,N
1593961075.3,286047002.1,N
1593961095.2,286047001.6,N
1593961115.0,286046999.7,N
1593961115.9,286046999.7,N
1593961135.7,286047002.2,N
1593961155.6,286047001.7,N
1593961175.4,286047002.5,N
1593961195.3,286047002.5,N
